Hourly Data Report for February 08, 2020

TORONTO CITY
ONTARIO
Current Station Operator: ECCC - MSC

43°40'00.000" N
79°24'00.000" W
112.50 m
6158355
71508
XTO

Download Data

Hourly Data (February 2020)
Hourly Data Report for February 8, 2020
TIME
LST
Temp Definition
°C
Dew Point Definition
°C
Rel Hum Definition
%
Precip. Amount Definition
mm

Wind Dir Definition
10's deg

Wind Spd Definition
km/h
Visibility Definition
km
Stn Press Definition
kPa
Hmdx Definition


Wind Chill Definition


Weather Definition


00:00 -7.5 -12.9 65 0.0       99.78     LegendNANA
01:00 -7.4 -12.4 67 0.0       99.88     LegendNANA
02:00 -8.6 -14.6 62 0.0       99.92     LegendNANA
03:00 -9.7 -16.9 56 0.0       100.02     LegendNANA
04:00 -10.7 -17.7 56 0.0       100.14     LegendNANA
05:00 -11.5 -18.1 58 0.0       100.25     LegendNANA
06:00 -12.1 -18.3 60 0.0       100.35     LegendNANA
07:00 -12.9 -19.0 60 0.0       100.47     LegendNANA
08:00 -13.4 -19.6 59 0.0       100.58     LegendNANA
09:00 -12.6 -19.4 57 0.0       100.73     LegendNANA
10:00 -11.7 -19.0 55 0.0       100.80     LegendNANA
11:00 -11.5 -19.2 53 0.0       100.91     LegendNANA
12:00 -9.1 -18.2 48 0.0       100.91     LegendNANA
13:00 -7.2 -18.2 41 0.0       100.90     LegendNANA
14:00 -7.0 -16.1 48 1.1       100.89     LegendNANA
15:00 -7.4 -15.0 55 0.0       100.91     LegendNANA
16:00 -7.6 -14.7 57 0.0       100.96     LegendNANA
17:00 -7.7 -14.6 57 0.0       101.05     LegendNANA
18:00 -7.9 -14.8 58 0.0       101.12     LegendNANA
19:00 -7.6 -13.7 61 0.0       101.19     LegendNANA
20:00 -6.9 -12.2 66 0.0       101.21     LegendNANA
21:00 -6.6 -11.5 68 0.0       101.23     LegendNANA
22:00 -6.4 -11.0 70 0.0       101.27     LegendNANA
23:00 -7.0 -11.5 70 0.0       101.29     LegendNANA

Notes on Data Quality.

Legend

  • E = Estimated
  • M = Missing
  • NA = Not Available*
  • [empty] = Indicates an unobserved value
Date modified: